Track STARLINK-1860 now! 10-day predictions STARLINK-1860 is classified as:
1 47147U 20088AB 21021.58335648 -.00741989 00000-0 -20170-1 0 9990 2 47147 53.0555 71.8276 0001467 61.8835 124.8571 15.39545169 1768